XCJ YPAD-YMEN

Flight info

Callsign XCJ
Flight time 1h 2m
Altitude 37000
Route AD V255 BENDO Y218 TYNDI Y53 ALAXO W382 ESDAN
Aircraft C750/M-SBDE3FGHRWXY/S

Departure

Time 2026-04-28 09:53
Airport Adelaide International Airport (YPAD)

Arrival

Time 2026-04-28 10:56
Airport Melbourne Essendon Airport (YMEN)
Time Latitude Longitude Altitude Speed Heading
2026-04-28 09:39 -34.93701 138.53413 15 ft 0 kts 49°
2026-04-28 09:48 -34.93700 138.53424 2 ft 1 kts 111°
2026-04-28 09:48 -34.93715 138.53419 1 ft 5 kts 201°
2026-04-28 09:49 -34.93737 138.53368 19 ft 8 kts 231°
2026-04-28 09:49 -34.93771 138.53319 19 ft 7 kts 229°
2026-04-28 09:49 -34.93806 138.53270 20 ft 9 kts 230°
2026-04-28 09:49 -34.93830 138.53172 17 ft 17 kts 264°
2026-04-28 09:50 -34.93894 138.53018 16 ft 25 kts 230°
2026-04-28 09:50 -34.94035 138.52943 17 ft 22 kts 188°
2026-04-28 09:50 -34.94176 138.52930 21 ft 19 kts 172°
2026-04-28 09:50 -34.94293 138.52919 22 ft 15 kts 179°
2026-04-28 09:51 -34.94378 138.52973 22 ft 14 kts 126°
2026-04-28 09:51 -34.94431 138.53071 21 ft 14 kts 123°
2026-04-28 09:51 -34.94484 138.53170 23 ft 14 kts 123°
2026-04-28 09:51 -34.94519 138.53283 19 ft 15 kts 89°
2026-04-28 09:52 -34.94494 138.53392 16 ft 12 kts 104°
2026-04-28 09:52 -34.94532 138.53463 16 ft 8 kts 134°
2026-04-28 09:52 -34.94568 138.53510 17 ft 7 kts 130°
2026-04-28 09:52 -34.94606 138.53534 17 ft 5 kts 218°
2026-04-28 09:53 -34.94819 138.53229 22 ft 109 kts 230°
2026-04-28 09:53 -34.95448 138.52319 305 ft 155 kts 229°
2026-04-28 09:53 -34.96142 138.51247 987 ft 170 kts 230°
2026-04-28 09:53 -34.96972 138.50068 1501 ft 196 kts 229°
2026-04-28 09:54 -34.97925 138.48709 2012 ft 224 kts 230°
2026-04-28 09:54 -34.98612 138.47708 2353 ft 242 kts 231°
2026-04-28 09:54 -34.99747 138.46048 3155 ft 260 kts 231°
2026-04-28 09:54 -35.00914 138.44346 4362 ft 263 kts 231°
2026-04-28 09:55 -35.02233 138.42788 5311 ft 275 kts 213°
2026-04-28 09:55 -35.04063 138.42088 6385 ft 278 kts 189°
2026-04-28 09:55 -35.05988 138.42426 7376 ft 284 kts 158°
2026-04-28 09:55 -35.07583 138.43830 8578 ft 285 kts 131°
2026-04-28 09:56 -35.08470 138.45962 9695 ft 289 kts 106°
2026-04-28 09:56 -35.08884 138.48393 10574 ft 299 kts 101°
2026-04-28 09:56 -35.09257 138.51001 10986 ft 323 kts 100°
2026-04-28 09:56 -35.09677 138.53817 11256 ft 349 kts 101°
2026-04-28 09:57 -35.10153 138.56811 11738 ft 363 kts 101°
2026-04-28 09:57 -35.10627 138.59823 12589 ft 366 kts 101°
2026-04-28 09:57 -35.11099 138.62917 13333 ft 372 kts 101°
2026-04-28 09:57 -35.11577 138.66055 14107 ft 378 kts 101°
2026-04-28 09:58 -35.12063 138.69201 14769 ft 383 kts 101°
2026-04-28 09:58 -35.12559 138.72415 15446 ft 388 kts 100°
2026-04-28 09:58 -35.13059 138.75681 16126 ft 393 kts 100°
2026-04-28 09:58 -35.13566 138.79006 16825 ft 398 kts 100°
2026-04-28 09:59 -35.14078 138.82360 17547 ft 404 kts 100°
2026-04-28 09:59 -35.14589 138.85712 18259 ft 409 kts 100°
2026-04-28 09:59 -35.15111 138.89147 18952 ft 415 kts 100°
2026-04-28 09:59 -35.15642 138.92647 19623 ft 420 kts 100°
2026-04-28 10:00 -35.16178 138.96190 20321 ft 425 kts 100°
2026-04-28 10:00 -35.16720 138.99771 21004 ft 431 kts 100°
2026-04-28 10:00 -35.17268 139.03405 21691 ft 436 kts 100°
2026-04-28 10:00 -35.17814 139.07033 22361 ft 442 kts 100°
2026-04-28 10:01 -35.18375 139.10772 23037 ft 448 kts 100°
2026-04-28 10:01 -35.18940 139.14544 23728 ft 453 kts 100°
2026-04-28 10:01 -35.19514 139.18381 24291 ft 459 kts 100°
2026-04-28 10:01 -35.20087 139.22227 24925 ft 462 kts 100°
2026-04-28 10:02 -35.20666 139.26118 25531 ft 466 kts 100°
2026-04-28 10:02 -35.21240 139.29983 26150 ft 469 kts 100°
2026-04-28 10:02 -35.21825 139.33931 26751 ft 473 kts 100°
2026-04-28 10:02 -35.22415 139.37926 27355 ft 476 kts 100°
2026-04-28 10:03 -35.23007 139.41936 27951 ft 480 kts 101°
2026-04-28 10:03 -35.23626 139.45918 28524 ft 483 kts 103°
2026-04-28 10:03 -35.24704 139.49854 29069 ft 486 kts 114°
2026-04-28 10:03 -35.26254 139.53475 29646 ft 486 kts 124°
2026-04-28 10:04 -35.28153 139.56939 30184 ft 489 kts 126°
2026-04-28 10:04 -35.30207 139.60274 30642 ft 491 kts 133°
2026-04-28 10:04 -35.32543 139.63348 31076 ft 494 kts 136°
2026-04-28 10:04 -35.34884 139.66368 31588 ft 495 kts 135°
2026-04-28 10:05 -35.37106 139.69620 32208 ft 497 kts 130°
2026-04-28 10:05 -35.39200 139.72992 32814 ft 497 kts 129°
2026-04-28 10:05 -35.41367 139.76311 33413 ft 497 kts 132°
2026-04-28 10:05 -35.43605 139.79468 34003 ft 497 kts 133°
2026-04-28 10:06 -35.45856 139.82700 34573 ft 498 kts 131°
2026-04-28 10:06 -35.48026 139.86016 35179 ft 497 kts 130°
2026-04-28 10:06 -35.50198 139.89334 35790 ft 495 kts 131°
2026-04-28 10:06 -35.52388 139.92547 36379 ft 494 kts 133°
2026-04-28 10:07 -35.54605 139.95782 36979 ft 492 kts 132°
2026-04-28 10:07 -35.56786 139.99050 37286 ft 499 kts 132°
2026-04-28 10:07 -35.58992 140.02383 37277 ft 512 kts 132°
2026-04-28 10:07 -35.61287 140.05812 37283 ft 525 kts 132°
2026-04-28 10:08 -35.66038 140.12887 37283 ft 543 kts 132°
2026-04-28 10:08 -35.70852 140.20134 37295 ft 554 kts 131°
2026-04-28 10:09 -35.75759 140.27487 37291 ft 555 kts 131°
2026-04-28 10:09 -35.80625 140.34827 37294 ft 555 kts 131°
2026-04-28 10:10 -35.85525 140.42214 37283 ft 554 kts 131°
2026-04-28 10:10 -35.90379 140.49558 37293 ft 555 kts 131°
2026-04-28 10:11 -35.95260 140.56954 37291 ft 554 kts 131°
2026-04-28 10:11 -36.00135 140.64358 37285 ft 554 kts 131°
2026-04-28 10:12 -36.04974 140.71723 37288 ft 553 kts 131°
2026-04-28 10:12 -36.09810 140.79099 37292 ft 554 kts 131°
2026-04-28 10:13 -36.14666 140.86523 37299 ft 552 kts 131°
2026-04-28 10:13 -36.19481 140.93899 37299 ft 553 kts 131°
2026-04-28 10:14 -36.24268 141.01387 37282 ft 553 kts 128°
2026-04-28 10:14 -36.28646 141.09259 37289 ft 554 kts 126°
2026-04-28 10:15 -36.33032 141.17042 37294 ft 553 kts 128°
2026-04-28 10:15 -36.37435 141.24911 37299 ft 554 kts 127°
2026-04-28 10:16 -36.41795 141.32735 37296 ft 552 kts 127°
2026-04-28 10:16 -36.46188 141.40596 37297 ft 553 kts 127°
2026-04-28 10:17 -36.50558 141.48482 37297 ft 552 kts 127°
2026-04-28 10:17 -36.54913 141.56314 37299 ft 552 kts 127°
2026-04-28 10:18 -36.59268 141.64203 37295 ft 551 kts 127°
2026-04-28 10:18 -36.63600 141.72037 37295 ft 552 kts 127°
2026-04-28 10:19 -36.67947 141.79939 37299 ft 551 kts 127°
2026-04-28 10:19 -36.72272 141.87805 37298 ft 552 kts 127°
2026-04-28 10:20 -36.76610 141.95722 37300 ft 551 kts 127°
2026-04-28 10:20 -36.80933 142.03624 37295 ft 551 kts 127°
2026-04-28 10:21 -36.85251 142.11540 37295 ft 550 kts 127°
2026-04-28 10:21 -36.89534 142.19406 37299 ft 551 kts 127°
2026-04-28 10:22 -36.93851 142.27358 37301 ft 550 kts 127°
2026-04-28 10:22 -36.98127 142.35250 37300 ft 551 kts 127°
2026-04-28 10:23 -37.02426 142.43202 37301 ft 552 kts 127°
2026-04-28 10:23 -37.06726 142.51178 37305 ft 552 kts 127°
2026-04-28 10:24 -37.10991 142.59105 37306 ft 551 kts 126°
2026-04-28 10:24 -37.15279 142.67095 37307 ft 552 kts 126°
2026-04-28 10:25 -37.19568 142.75107 37310 ft 551 kts 126°
2026-04-28 10:25 -37.23829 142.83083 37312 ft 551 kts 126°
2026-04-28 10:26 -37.28094 142.91088 37311 ft 551 kts 126°
2026-04-28 10:26 -37.32335 142.99066 37298 ft 549 kts 126°
2026-04-28 10:27 -37.34410 143.02983 36612 ft 528 kts 126°
2026-04-28 10:27 -37.36407 143.06759 35945 ft 506 kts 126°
2026-04-28 10:27 -37.38304 143.10338 35310 ft 488 kts 126°
2026-04-28 10:27 -37.40164 143.13848 34689 ft 475 kts 126°
2026-04-28 10:28 -37.41987 143.17295 34078 ft 470 kts 126°
2026-04-28 10:28 -37.43797 143.20725 33464 ft 471 kts 126°
2026-04-28 10:28 -37.45601 143.24143 32851 ft 477 kts 126°
2026-04-28 10:29 -37.49298 143.31170 31575 ft 482 kts 126°
2026-04-28 10:29 -37.51144 143.34686 30971 ft 481 kts 126°
2026-04-28 10:29 -37.52997 143.38213 30369 ft 478 kts 126°
2026-04-28 10:29 -37.54800 143.41652 29666 ft 472 kts 126°
2026-04-28 10:30 -37.56603 143.45094 28980 ft 468 kts 126°
2026-04-28 10:30 -37.58390 143.48507 28295 ft 463 kts 126°
2026-04-28 10:30 -37.60163 143.51897 27622 ft 460 kts 126°
2026-04-28 10:30 -37.61915 143.55253 26973 ft 456 kts 126°
2026-04-28 10:31 -37.63625 143.58531 26601 ft 450 kts 126°
2026-04-28 10:31 -37.65352 143.61843 26013 ft 452 kts 126°
2026-04-28 10:31 -37.67069 143.65138 25422 ft 448 kts 126°
2026-04-28 10:31 -37.68781 143.68430 24833 ft 444 kts 126°
2026-04-28 10:32 -37.70472 143.71683 24246 ft 441 kts 126°
2026-04-28 10:32 -37.72132 143.74883 23633 ft 438 kts 125°
2026-04-28 10:32 -37.73790 143.78079 23054 ft 431 kts 125°
2026-04-28 10:32 -37.75428 143.81238 22485 ft 428 kts 125°
2026-04-28 10:33 -37.77042 143.84355 21931 ft 425 kts 125°
2026-04-28 10:33 -37.78671 143.87506 21366 ft 421 kts 125°
2026-04-28 10:33 -37.80251 143.90564 20821 ft 417 kts 125°
2026-04-28 10:33 -37.81826 143.93616 20274 ft 413 kts 124°
2026-04-28 10:34 -37.83146 143.96838 19659 ft 413 kts 110°
2026-04-28 10:34 -37.83601 144.00413 19145 ft 410 kts 92°
2026-04-28 10:34 -37.83310 144.03985 18656 ft 407 kts 82°
2026-04-28 10:34 -37.82874 144.07468 18095 ft 404 kts 81°
2026-04-28 10:35 -37.82437 144.10961 17556 ft 401 kts 82°
2026-04-28 10:35 -37.82035 144.14435 17026 ft 398 kts 82°
2026-04-28 10:35 -37.81639 144.17893 16499 ft 395 kts 82°
2026-04-28 10:35 -37.81227 144.21314 15976 ft 392 kts 82°
2026-04-28 10:36 -37.80812 144.24717 15450 ft 389 kts 82°
2026-04-28 10:36 -37.80413 144.28053 14950 ft 386 kts 82°
2026-04-28 10:36 -37.80017 144.31393 14445 ft 383 kts 82°
2026-04-28 10:36 -37.79617 144.34715 13919 ft 380 kts 82°
2026-04-28 10:37 -37.79216 144.38017 13397 ft 379 kts 82°
2026-04-28 10:37 -37.78825 144.41243 12911 ft 360 kts 82°
2026-04-28 10:37 -37.78462 144.44238 12451 ft 338 kts 82°
2026-04-28 10:37 -37.78114 144.47109 12012 ft 321 kts 82°
2026-04-28 10:38 -37.77782 144.49839 11596 ft 308 kts 82°
2026-04-28 10:38 -37.77459 144.52486 11147 ft 303 kts 82°
2026-04-28 10:38 -37.77137 144.55129 10564 ft 303 kts 81°
2026-04-28 10:38 -37.76817 144.57744 10151 ft 298 kts 81°
2026-04-28 10:39 -37.76505 144.60286 9739 ft 287 kts 81°
2026-04-28 10:39 -37.76202 144.62751 9362 ft 282 kts 81°
2026-04-28 10:39 -37.75904 144.65172 8996 ft 281 kts 81°
2026-04-28 10:39 -37.75611 144.67612 8621 ft 280 kts 82°
2026-04-28 10:40 -37.75845 144.70032 8196 ft 275 kts 107°
2026-04-28 10:40 -37.76516 144.72237 7930 ft 262 kts 112°
2026-04-28 10:40 -37.77215 144.74347 7646 ft 258 kts 112°
2026-04-28 10:40 -37.77908 144.76423 7251 ft 260 kts 112°
2026-04-28 10:41 -37.78618 144.78536 6822 ft 260 kts 112°
2026-04-28 10:41 -37.79331 144.80630 6376 ft 257 kts 112°
2026-04-28 10:41 -37.80034 144.82683 6002 ft 252 kts 112°
2026-04-28 10:41 -37.80723 144.84695 5629 ft 250 kts 113°
2026-04-28 10:42 -37.81409 144.86703 5255 ft 248 kts 112°
2026-04-28 10:42 -37.81816 144.88786 4776 ft 245 kts 90°
2026-04-28 10:42 -37.81745 144.90199 4517 ft 241 kts 83°
2026-04-28 10:42 -37.81548 144.92279 4157 ft 235 kts 82°
2026-04-28 10:43 -37.81281 144.94981 3672 ft 230 kts 82°
2026-04-28 10:43 -37.81147 144.96303 3432 ft 228 kts 82°
2026-04-28 10:43 -37.80939 144.98281 3060 ft 225 kts 82°
2026-04-28 10:43 -37.80734 145.00182 3029 ft 211 kts 82°
2026-04-28 10:44 -37.80470 145.02586 3040 ft 210 kts 82°
2026-04-28 10:44 -37.80336 145.03803 3045 ft 208 kts 82°
2026-04-28 10:44 -37.80138 145.05610 3043 ft 209 kts 82°
2026-04-28 10:44 -37.79938 145.07444 3045 ft 211 kts 82°
2026-04-28 10:45 -37.79739 145.09288 3042 ft 212 kts 82°
2026-04-28 10:45 -37.79542 145.11118 3045 ft 212 kts 82°
2026-04-28 10:45 -37.79339 145.12981 3046 ft 213 kts 82°
2026-04-28 10:45 -37.79094 145.14829 3008 ft 213 kts 73°
2026-04-28 10:46 -37.78186 145.16214 2917 ft 210 kts 29°
2026-04-28 10:46 -37.76766 145.16574 2980 ft 207 kts
2026-04-28 10:46 -37.75313 145.16643 3058 ft 210 kts
2026-04-28 10:46 -37.73868 145.16730 3046 ft 201 kts
2026-04-28 10:47 -37.72509 145.16814 3046 ft 197 kts
2026-04-28 10:47 -37.71123 145.16897 3041 ft 198 kts
2026-04-28 10:47 -37.69740 145.16978 3040 ft 199 kts
2026-04-28 10:47 -37.68372 145.17059 3038 ft 199 kts
2026-04-28 10:48 -37.66986 145.17140 3037 ft 199 kts
2026-04-28 10:48 -37.65612 145.17219 3035 ft 192 kts
2026-04-28 10:48 -37.64296 145.17295 3025 ft 186 kts
2026-04-28 10:48 -37.62996 145.17369 3024 ft 187 kts
2026-04-28 10:49 -37.61708 145.17440 3032 ft 188 kts
2026-04-28 10:49 -37.60467 145.17061 2934 ft 188 kts 324°
2026-04-28 10:49 -37.59879 145.15653 2891 ft 187 kts 274°
2026-04-28 10:49 -37.60378 145.14194 2882 ft 187 kts 223°
2026-04-28 10:50 -37.61523 145.13497 3016 ft 186 kts 200°
2026-04-28 10:50 -37.62762 145.12922 3107 ft 191 kts 201°
2026-04-28 10:50 -37.64009 145.12339 3055 ft 190 kts 201°
2026-04-28 10:50 -37.65243 145.11762 3048 ft 188 kts 201°
2026-04-28 10:51 -37.66457 145.11194 3046 ft 189 kts 201°
2026-04-28 10:51 -37.67684 145.10619 3044 ft 188 kts 201°
2026-04-28 10:51 -37.68920 145.10038 3037 ft 188 kts 201°
2026-04-28 10:51 -37.70149 145.09461 3035 ft 188 kts 201°
2026-04-28 10:52 -37.71366 145.08890 3035 ft 188 kts 201°
2026-04-28 10:52 -37.72567 145.08228 2981 ft 189 kts 215°
2026-04-28 10:52 -37.73154 145.06881 2850 ft 167 kts 266°
2026-04-28 10:52 -37.72880 145.05464 2426 ft 165 kts 288°
2026-04-28 10:53 -37.72761 145.04065 2208 ft 163 kts 268°
2026-04-28 10:53 -37.72786 145.02633 2006 ft 165 kts 268°
2026-04-28 10:53 -37.72818 145.01166 1776 ft 164 kts 267°
2026-04-28 10:53 -37.72857 144.99742 1549 ft 156 kts 267°
2026-04-28 10:54 -37.72892 144.98435 1337 ft 144 kts 267°
2026-04-28 10:54 -37.72927 144.97180 1151 ft 141 kts 269°
2026-04-28 10:54 -37.72958 144.95992 974 ft 134 kts 270°
2026-04-28 10:54 -37.73004 144.94826 792 ft 132 kts 269°
2026-04-28 10:55 -37.73041 144.93688 617 ft 126 kts 271°
2026-04-28 10:55 -37.73068 144.92580 472 ft 126 kts 272°
2026-04-28 10:55 -37.73079 144.91488 309 ft 123 kts 273°
2026-04-28 10:55 -37.73098 144.90519 253 ft 102 kts 268°
2026-04-28 10:56 -37.73121 144.89855 262 ft 60 kts 268°
2026-04-28 10:56 -37.73135 144.89467 263 ft 16 kts 268°
2026-04-28 10:56 -37.73123 144.89382 265 ft 8 kts 311°
2026-04-28 10:56 -37.73080 144.89370 265 ft 6 kts
2026-04-28 10:57 -37.73040 144.89376 265 ft 6 kts
2026-04-28 10:57 -37.73008 144.89381 266 ft 4 kts
2026-04-28 10:57 -37.72972 144.89387 266 ft 7 kts
2026-04-28 10:57 -37.72924 144.89396 266 ft 7 kts
2026-04-28 10:58 -37.72877 144.89402 266 ft 6 kts 354°
2026-04-28 10:58 -37.72855 144.89374 266 ft 4 kts 281°
2026-04-28 10:58 -37.72852 144.89350 266 ft 2 kts 275°
2026-04-28 10:58 -37.72859 144.89337 266 ft 0 kts 218°
2026-04-28 10:59 -37.72867 144.89337 266 ft 2 kts 180°
2026-04-28 10:59 -37.72885 144.89335 266 ft 3 kts 179°
2026-04-28 10:59 -37.72890 144.89342 266 ft 0 kts 123°
2026-04-28 10:59 -37.72889 144.89345 266 ft 1 kts 103°
2026-04-28 11:00 -37.72889 144.89348 266 ft 0 kts 84°